SKCUBE (42789 NORAD) Tracking and Keplerian Element Data

This shows tracking and keplerian element data for the satellite.

Feedback or suggestion? Click here.




ElementValue
Catalog42789
NameSKCUBE
Epoch Orbit7697
Epoch Day315.85968548
Epoch Year2018
RAAN13.2455
Inclination97.3835
Eccentricity0.0010021
Argument of Perigee279.7369
Mean Anonmoly80.2735
Mean Motion15.22263844
Decay Rate1.445E-05
L11 42789U 17036AA 18315.85968548 .00001445 00000-0 65788-4 0 9990
L22 42789 97.3835 13.2455 0010021 279.7369 80.2735 15.22263844 76975

Live tracking and technical data element details for SKCUBE (NORAD 42789). SKCUBE can be tracked NOW for your location showing map with azimuth and elevation plus other details from your city location.

Track the satellite on the map from your city or location and see movement details for azimuth, elevation, latitude, longitude, range, height, and movement on the map or in text.







IsCatalogInMostPopularTable: catalog: 42789, numindb: 139
Update: records affected: 1



GetName: 42789 SKCUBE

Hit Count: updated at: Mon, 12 Nov 2018 17:41:23 GMT